Regional Weather Roundup
Issued by NWS Memphis, TN

Home | Current Version | Previous Version | Text Only | Print | Product List | Glossary On
Versions: 1 2 3 4 5 6 7 8 9 10 11 12 13 14 15 16 17 18 19 20 21 22 23 24 25 26 27 28 29 30 31 32 33 34 35 36 37 38 39 40 41 42 43 44 45 46 47 48 49 50
000
ASUS44 KMEG 230700
RWRMEG
MEMPHIS CWA HOURLY WEATHER ROUNDUP
NATIONAL WEATHER SERVICE MEMPHIS TN
100 AM CST FRI FEB 23 2018

...WEST TENNESSEE...

CITY           SKY/WX    TMP DP  RH WIND       PRES   REMARKS
MEMPHIS INTL   LGT RAIN  52  52 100 N6        30.24R VSB 1
NWS MEMPHIS      N/A     55 N/A N/A MISG        N/A
JACKSON        MOCLDY    57  57 100 VRB3      30.23R
DYERSBURG      RAIN      52  52 100 NW12      30.28R FOG


...EASTERN ARKANSAS...

CITY           SKY/WX    TMP DP  RH WIND       PRES   REMARKS
JONESBORO      LGT RAIN  50  50 100 E5        30.19F
WEST MEMPHIS   CLOUDY    52  52 100 CALM      30.23F
BATESVILLE     LGT RAIN  45  45 100 CALM      30.23S
NEWPORT        LGT RAIN  48  48 100 W6        30.21F
WALNUT RIDGE   LGT RAIN  47  47 100 NW9       30.19S
BLYTHEVILLE    RAIN      51  51 100 E8        30.23F
SEARCY         LGT RAIN  47  32  56 NW5       30.23S
STUTTGART      CLOUDY    50  49  96 SE5       30.23S
PINE BLUFF     CLOUDY    49  49 100 E3        30.22F
MONTICELLO     FAIR      52  49  89 CALM      30.22S


...NORTH MISSISSIPPI...

CITY           SKY/WX    TMP DP  RH WIND       PRES   REMARKS
TUPELO         FAIR      65  61  87 S8        30.26S
OXFORD         FAIR      63  61  94 S12G20    30.25S
BATESVILLE       N/A    N/A N/A N/A MISG        N/A
CLARKSDALE       N/A     54  54 100 CALM      30.24R FOG
GREENWOOD      FAIR      68  64  87 S12       30.25R
COLUMBUS       FAIR      70  65  84 S7        30.28S
STARKVILLE     FAIR      68  63  83 S8        30.30S
GOLDEN TRIANGL FAIR      66  62  87 S9        30.29F


...SOUTHEAST MISSOURI...

CITY           SKY/WX    TMP DP  RH WIND       PRES   REMARKS
KENNETT        RAIN      52  52 100 SE9       30.19F
MALDEN         CLOUDY    50  48  93 E3        30.21F FOG
WEST PLAINS    CLOUDY    45  44  97 S3        30.18R FOG
POPLAR BLUFF   LGT RAIN  48  48 100 CALM      30.19F
CAPE GIRARDEAU LGT RAIN  50  49  96 SE9       30.18F FOG


...NORTHWEST ALABAMA...

CITY           SKY/WX    TMP DP  RH WIND       PRES   REMARKS
MUSCLE SHOALS  FAIR      67  59  75 S7        30.29S


...MIDDLE TENNESSEE...

CITY           SKY/WX    TMP DP  RH WIND       PRES   REMARKS
NASHVILLE      FAIR      57  56  96 SE3       30.27F
CLARKSVILLE    MOCLDY    57  55  93 SE6       30.24S FOG


...WESTERN KENTUCKY...

CITY           SKY/WX    TMP DP  RH WIND       PRES   REMARKS
PADUCAH        RAIN      53  52  96 S6        30.22S FOG
FORT CAMPBELL  MOCLDY    58  58 100 SE5       30.23


...CENTRAL ARKANSAS...

CITY           SKY/WX    TMP DP  RH WIND       PRES   REMARKS
LITTLE ROCK    CLOUDY    47  47 100 W7        30.24R FOG


SKY/WX REPORTED AS FAIR MEANS FEW OR NO CLOUDS BELOW
12 THOUSAND FEET.





USA.gov is the U.S. government's official web portal to all federal, state and local government web resources and services.